Погода в Осинове

Россия / Новосибирская область     55°27′33″N   78°50′51″E
темп.,
°C
ветер,
м/с
пор.,
м/с
влажн.,
%
обл.,
%
осадки,
мм/ч
давл.,
гПа
погр.,
м
21 апреля, ср
ср2101:00−1зюз71247100 0.0 10211097
04:00−3юз71488100 0.6 1019789
07:00−2зюз61295100 1.6 1017627
10:00−1ссз798098 0.3 1019871
13:00−1ссз7971100 0.4 10211110
16:000ссз797299 0.1 10231190
19:00+1с7107596 0.3 10261060
22:00−1ссв7128422 0.0 1030657
22 апреля, чт
чт2201:00−3ссв6128825 0.0 1033503
04:00−4ссв511895 0.0 1036381
07:00−4ссв510875 0.0 1039311
10:00−1св57725 0.0 1042505
13:00+2св56575 0.0 10431115
16:00+3св454956 0.0 10441397
19:00+3св455434 0.0 10451254
22:00−1св33755 0.0 104737
23 апреля, пт
пт2301:00−1всв33825 0.0 104751
04:00−2всв22865 0.0 104731
07:00−2всв22845 0.0 104840
10:00+2всв33635 0.0 1048644
13:00+4св33525 0.0 10471148
16:00+6св33495 0.0 10451273
19:00+5св33535 0.0 10441186
22:00+2св33725 0.0 104450
24 апреля, сб
сб2401:00+1в22785 0.0 104317
04:000всв23791 0.0 104155
07:000всв22795 0.0 104155
10:00+3всв23625 0.0 1040584
13:00+6с225125 0.0 10381383
16:00+7ссв32465 0.0 10361468
19:00+7ссв22480 0.0 10351266
22:00+4всв22665 0.0 103515
25 апреля, вс
вс2501:00+3вюв22735 0.0 103417
04:00+1ююв227730 0.0 103310
07:00+1ююв2277100 0.0 103314
10:00+5ююв2361100 0.0 1033413
13:00+8ю3349100 0.0 10321147
16:00+9ю3443100 0.0 10301329
19:00+9ю3444100 0.0 10291297
22:00+6ююв3458100 0.0 102872